Regional Weather Roundup
Issued by NWS

Home | Current Version | Previous Version | Text Only | Print | Product List | Glossary Off
Versions: 1 2 3 4 5 6 7 8 9 10 11 12 13 14 15 16 17 18 19 20 21 22 23 24 25 26 27 28 29 30 31 32 33 34 35 36 37 38 39 40 41 42 43 44 45 46 47 48 49 50

000
ASUS43 KFSD 021310
RWRSD

WEATHER ROUNDUP FOR SOUTH DAKOTA
NATIONAL WEATHER SERVICE SIOUX FALLS SD
800 AM CDT SUN AUG 02 2015

NOTE: "FAIR" INDICATES FEW OR NO CLOUDS BELOW 12,000 FEET WITH NO
SIGNIFICANT WEATHER AND/OR OBSTRUCTIONS TO VISIBILITY.


SDZ001>005-009-010-012>017-021400-
NORTHWEST AND NORTH CENTRAL SOUTH DAKOTA

CITY           SKY/WX    TMP DP  RH WIND       PRES   REMARKS
BUFFALO          N/A     63  51  65 NE13      29.91S
FAITH            N/A     62  50  64 N13       29.92R
MOBRIDGE       SUNNY     68  59  73 NW14      29.84R
$$

SDZ012>016-024>037-041>051-057-063-072>074-021400-
SOUTHWEST AND SOUTH CENTRAL SOUTH DAKOTA

CITY           SKY/WX    TMP DP  RH WIND       PRES   REMARKS
RAPID CTY ARPT SUNNY     67  45  45 N15       29.95R
PIERRE         SUNNY     70  62  76 NW9       29.80R
CUSTER         MOSUNNY   67  54  63 NW3       30.10S
ELLSWORTH AFB  SUNNY     69  41  35 N14       29.96R
PHILIP         SUNNY     66  57  72 W7        29.87R
PINE RIDGE     SUNNY     60  55  83 CALM      29.95R
WINNER         FAIR      73  58  59 W6        29.84R
$$

SDZ004>011-016>023-039-040-021400-
NORTHEAST SOUTH DAKOTA

CITY           SKY/WX    TMP DP  RH WIND       PRES   REMARKS
ABERDEEN       SUNNY     70  61  73 NW17      29.76R
WATERTOWN      SUNNY     72  60  66 W10       29.73R
BROOKINGS      MOSUNNY   68  61  77 SW6       29.76S
SISSETON         N/A     69  62  78 N20G31    29.69R
$$

SDZ017-020-022-023-036>040-048>070-021400-
SOUTHEAST SOUTH DAKOTA

CITY           SKY/WX    TMP DP  RH WIND       PRES   REMARKS
SIOUX FALLS    MOSUNNY   68  61  78 SW6       29.77S
HURON          MOSUNNY   66  61  84 W6        29.74R
CHAMBERLAIN    SUNNY     68  62  81 W5        29.81R
MITCHELL       SUNNY     68  62  81 SW5       29.77S
YANKTON        SUNNY     66  64  94 W6        29.78S
$$

ABBREVIATIONS USED IN REMARKS
   TC - TEMPERATURE IN CELSIUS
  WCI - WIND CHILL INDEX
   HX - HEAT INDEX
  VSB - VISIBILITY




USA.gov is the U.S. government's official web portal to all federal, state and local government web resources and services.